Tracking 25963 objects as of 13-Aug-2022
HD Live streaming from Space Station
objects crossing your sky now

STARLINK-4379

Track STARLINK-4379 now!
10-day predictions
STARLINK-4379 is classified as:


NORAD ID: 53217
Int'l Code: 2022-084AE
Perigee: 419.0 km
Apogee: 421.3 km
Inclination: 97.7 °
Period: 92.8 minutes
Semi major axis: 6791 km
RCS: Unknown
Launch date: July 22, 2022
Source: United States (US)
Launch site: AIR FORCE WESTERN TEST RANGE (AFWTR)
aabbcc
Your satellite tracking list
Your tracking list is empty




NASA's NSSDC Master Catalog

Two Line Element Set (TLE):
1 53217U 22084AE  22224.83335648 -.00048404  00000-0 -83018-3 0  9991
2 53217  97.6539 284.0946 0001697 113.7407  26.7608 15.51272677  3845
Source of the keplerian elements: AFSPC